�������l�o���
Date,Time,MP-1(��Sv/h),MP-2(��Sv/h),MP-3(��Sv/h),MP-4(��Sv/h),MP-5(��Sv/h),MP-6(��Sv/h),MP-7(��Sv/h),MP-8(��Sv/h),����,����(m/s),���J
2018/12/13,00:00,0.760,1.136,0.802,1.442,1.019,0.446,0.789,0.748,�k��,7.3,��
2018/12/13,00:10,0.758,1.136,0.802,1.437,1.021,0.444,0.788,0.749,�k��,6.7,��
2018/12/13,00:20,0.759,1.137,0.803,1.440,1.021,0.444,0.788,0.748,�k��,6.6,��
2018/12/13,00:30,0.758,1.138,0.802,1.441,1.023,0.444,0.786,0.748,�k��,4.9,��
2018/12/13,00:40,0.759,1.137,0.802,1.441,1.021,0.444,0.787,0.747,�k��,5.5,��
2018/12/13,00:50,0.758,1.136,0.800,1.441,1.021,0.445,0.787,0.748,�k��,5.1,��
2018/12/13,01:00,0.759,1.135,0.801,1.441,1.019,0.445,0.790,0.747,�k��,6.0,��
2018/12/13,01:10,0.759,1.134,0.804,1.441,1.021,0.446,0.790,0.748,�k�k��,4.0,��
2018/12/13,01:20,0.759,1.134,0.802,1.443,1.020,0.445,0.788,0.748,�k�k��,4.5,��
2018/12/13,01:30,0.759,1.135,0.801,1.442,1.023,0.443,0.787,0.749,�k�k��,3.3,��
2018/12/13,01:40,0.759,1.135,0.803,1.442,1.021,0.444,0.789,0.748,�k�k��,3.8,��
2018/12/13,01:50,0.760,1.133,0.801,1.442,1.021,0.444,0.789,0.748,�k��,6.7,��
2018/12/13,02:00,0.760,1.135,0.802,1.441,1.023,0.444,0.789,0.748,�k��,6.5,��
2018/12/13,02:10,0.758,1.135,0.800,1.440,1.023,0.443,0.787,0.747,�k��,6.7,��
2018/12/13,02:20,0.760,1.133,0.803,1.441,1.021,0.442,0.787,0.748,�k��,6.9,��
2018/12/13,02:30,0.759,1.136,0.801,1.440,1.021,0.444,0.787,0.748,�k��,6.6,��
2018/12/13,02:40,0.756,1.134,0.801,1.441,1.021,0.444,0.787,0.747,�k��,6.4,��
2018/12/13,02:50,0.758,1.138,0.801,1.443,1.021,0.442,0.787,0.748,�k��,5.5,��
2018/12/13,03:00,0.758,1.133,0.799,1.443,1.019,0.443,0.786,0.747,�k��,5.4,��
2018/12/13,03:10,0.758,1.132,0.800,1.438,1.018,0.443,0.787,0.748,�k��,4.4,��
2018/12/13,03:20,0.757,1.133,0.800,1.442,1.020,0.444,0.786,0.746,�k��,3.8,��
2018/12/13,03:30,0.759,1.133,0.803,1.441,1.022,0.444,0.786,0.746,�k��,6.2,��
2018/12/13,03:40,0.758,1.134,0.801,1.441,1.022,0.443,0.786,0.747,�k��,6.2,��
2018/12/13,03:50,0.758,1.133,0.800,1.441,1.021,0.442,0.785,0.745,�k��,5.6,��
2018/12/13,04:00,0.758,1.135,0.801,1.439,1.021,0.444,0.787,0.745,�k��,5.6,��
2018/12/13,04:10,0.758,1.136,0.802,1.441,1.021,0.442,0.788,0.746,�k��,7.0,��
2018/12/13,04:20,0.758,1.134,0.801,1.439,1.020,0.444,0.786,0.747,�k��,6.9,��
2018/12/13,04:30,0.755,1.135,0.800,1.442,1.021,0.442,0.785,0.746,�k��,6.1,��
2018/12/13,04:40,0.756,1.133,0.800,1.441,1.020,0.441,0.785,0.748,�k��,6.0,��
2018/12/13,04:50,0.759,1.136,0.800,1.441,1.021,0.443,0.785,0.745,�k��,6.0,��
2018/12/13,05:00,0.757,1.134,0.802,1.440,1.021,0.442,0.786,0.746,�k��,5.6,��
2018/12/13,05:10,0.756,1.135,0.800,1.440,1.020,0.443,0.785,0.747,�k��,5.7,��
2018/12/13,05:20,0.756,1.134,0.800,1.440,1.019,0.442,0.786,0.747,�k��,5.2,��
2018/12/13,05:30,0.756,1.135,0.802,1.441,1.021,0.444,0.785,0.747,�k��,4.2,��
2018/12/13,05:40,0.757,1.135,0.800,1.440,1.018,0.442,0.785,0.747,���k��,2.9,��
2018/12/13,05:50,0.757,1.132,0.800,1.441,1.020,0.442,0.785,0.746,��,3.7,��
2018/12/13,06:00,0.756,1.134,0.800,1.440,1.021,0.441,0.784,0.745,��,3.2,��
2018/12/13,06:10,0.754,1.133,0.800,1.441,1.020,0.442,0.788,0.748,���쐼,2.9,��
2018/12/13,06:20,0.757,1.133,0.802,1.441,1.020,0.442,0.786,0.746,���쐼,2.3,��
2018/12/13,06:30,0.755,1.134,0.800,1.442,1.019,0.443,0.785,0.747,���쐼,2.5,��
2018/12/13,06:40,0.756,1.131,0.799,1.442,1.017,0.442,0.784,0.746,���쐼,2.3,��
2018/12/13,06:50,0.757,1.133,0.800,1.440,1.019,0.442,0.784,0.746,��,3.7,��
2018/12/13,07:00,0.756,1.132,0.799,1.443,1.018,0.441,0.785,0.747,��,4.5,��
2018/12/13,07:10,0.755,1.131,0.798,1.442,1.018,0.441,0.786,0.746,��,5.4,��
2018/12/13,07:20,0.757,1.132,0.800,1.439,1.018,0.442,0.786,0.745,��,5.0,��
2018/12/13,07:30,0.758,1.131,0.799,1.439,1.017,0.442,0.786,0.747,��,5.1,��
2018/12/13,07:40,0.757,1.132,0.801,1.442,1.018,0.442,0.784,0.747,��,5.7,��
2018/12/13,07:50,0.755,1.133,0.801,1.440,1.019,0.441,0.787,0.747,��,5.4,��
2018/12/13,08:00,0.757,1.132,0.800,1.442,1.019,0.442,0.786,0.747,��,5.4,��
2018/12/13,08:10,0.757,1.134,0.800,1.440,1.017,0.440,0.785,0.746,���쐼,3.8,��
2018/12/13,08:20,0.757,1.135,0.801,1.441,1.018,0.442,0.788,0.746,���쐼,3.3,��
2018/12/13,08:30,0.758,1.132,0.799,1.442,1.021,0.444,0.786,0.747,���쐼,2.6,��
2018/12/13,08:40,0.758,1.134,0.801,1.439,1.018,0.442,0.788,0.748,��,3.0,��
2018/12/13,08:50,0.757,1.133,0.801,1.444,1.018,0.443,0.786,0.749,���k��,3.7,��
2018/12/13,09:00,0.759,1.135,0.800,1.440,1.021,0.443,0.785,0.747,��,4.9,��
2018/12/13,09:10,0.760,1.138,0.803,1.439,1.020,0.443,0.787,0.747,��,6.3,��
2018/12/13,09:20,0.760,1.134,0.800,1.441,1.021,0.442,0.788,0.749,��,6.9,��
2018/12/13,09:30,0.760,1.132,0.801,1.440,1.020,0.442,0.787,0.749,��,7.1,��
2018/12/13,09:40,0.759,1.135,0.801,1.439,1.019,0.442,0.789,0.748,��,6.7,��
2018/12/13,09:50,0.760,1.131,0.801,1.441,1.020,0.444,0.787,0.746,��,6.4,��
2018/12/13,10:00,0.757,1.132,0.803,1.443,1.019,0.443,0.787,0.748,���k��,4.4,��
2018/12/13,10:10,0.761,1.131,0.803,1.442,1.021,0.445,0.786,0.748,��,3.7,��
2018/12/13,10:20,0.760,1.129,0.793,1.444,1.025,0.445,0.786,0.748,��,5.1,��
2018/12/13,10:30,0.757,1.132,0.802,1.443,1.022,0.444,0.787,0.749,��,5.0,��
2018/12/13,10:40,0.761,1.130,0.790,1.442,0.988,0.442,0.786,0.748,��,5.8,��
2018/12/13,10:50,0.760,1.133,0.785,1.444,1.002,0.443,0.786,0.748,��,5.4,��
2018/12/13,11:00,0.761,1.133,0.789,1.444,0.994,0.445,0.788,0.749,���k��,6.4,��
2018/12/13,11:10,0.760,1.134,0.784,1.444,1.027,0.444,0.787,0.749,���k��,5.8,��
2018/12/13,11:20,0.763,1.132,0.787,1.443,1.026,0.446,0.788,0.748,��,6.6,��
2018/12/13,11:30,0.761,1.132,0.782,1.445,1.026,0.443,0.789,0.748,��,7.4,��
2018/12/13,11:40,0.764,1.137,0.775,1.446,1.026,0.444,0.788,0.749,��,6.7,��
2018/12/13,11:50,0.762,1.133,0.790,1.448,1.027,0.445,0.789,0.750,��,7.0,��
2018/12/13,12:00,0.762,1.136,0.798,1.445,1.027,0.445,0.789,0.749,��,6.2,��
2018/12/13,12:10,0.763,1.138,0.798,1.445,1.022,0.450,0.790,0.751,��,5.3,��
2018/12/13,12:20,0.761,1.139,0.799,1.447,1.027,0.446,0.790,0.749,��,6.7,��
2018/12/13,12:30,0.760,1.137,0.799,1.448,1.029,0.446,0.792,0.750,���k��,5.3,��
2018/12/13,12:40,0.764,1.137,0.797,1.446,1.027,0.445,0.791,0.750,�k��,5.5,��
2018/12/13,12:50,0.763,1.135,0.799,1.448,1.030,0.447,0.791,0.750,���k��,4.8,��
2018/12/13,13:00,0.762,1.132,0.799,1.449,1.029,0.447,0.791,0.751,���k��,5.2,��
2018/12/13,13:10,0.762,1.136,0.799,1.448,1.030,0.446,0.792,0.749,���k��,7.1,��
2018/12/13,13:20,0.764,1.137,0.796,1.448,1.028,0.447,0.790,0.748,���k��,5.4,��
2018/12/13,13:30,0.764,1.133,0.799,1.447,1.026,0.448,0.792,0.748,�k��,6.6,��
2018/12/13,13:40,0.763,1.136,0.795,1.448,1.028,0.446,0.787,0.747,���k��,4.3,��
2018/12/13,13:50,0.762,1.135,0.796,1.449,1.029,0.447,0.789,0.749,��,6.1,��
2018/12/13,14:00,0.763,1.133,0.797,1.448,1.029,0.448,0.791,0.748,���쐼,6.2,��
2018/12/13,14:10,0.765,1.134,0.800,1.449,1.029,0.445,0.791,0.749,���k��,7.5,��
2018/12/13,14:20,0.762,1.137,0.795,1.448,1.028,0.446,0.791,0.747,���k��,7.0,��
2018/12/13,14:30,0.764,1.136,0.797,1.447,1.029,0.446,0.793,0.749,���k��,8.6,��
2018/12/13,14:40,0.765,1.137,0.795,1.451,1.030,0.448,0.791,0.752,���k��,8.0,��
2018/12/13,14:50,0.764,1.139,0.796,1.449,1.027,0.447,0.791,0.750,���k��,5.7,��
2018/12/13,15:00,0.763,1.139,0.799,1.449,1.027,0.447,0.792,0.752,���k��,4.4,��
2018/12/13,15:10,0.763,1.142,0.800,1.448,1.027,0.447,0.792,0.750,���k��,3.6,��
2018/12/13,15:20,0.764,1.142,0.800,1.449,1.027,0.449,0.792,0.752,���k��,3.2,��
2018/12/13,15:30,0.764,1.144,0.800,1.451,1.030,0.449,0.790,0.750,��,4.4,��
2018/12/13,15:40,0.765,1.144,0.801,1.447,1.031,0.448,0.791,0.750,���k��,3.7,��
2018/12/13,15:50,0.763,1.143,0.800,1.451,1.027,0.447,0.790,0.749,���k��,3.6,��
2018/12/13,16:00,0.766,1.144,0.800,1.450,1.028,0.447,0.790,0.750,���k��,2.8,��
2018/12/13,16:10,0.763,1.146,0.800,1.450,1.030,0.446,0.789,0.749,���k��,2.8,��
2018/12/13,16:20,0.764,1.145,0.799,1.450,1.028,0.448,0.792,0.750,���k��,3.9,��
2018/12/13,16:30,0.764,1.145,0.800,1.449,1.028,0.447,0.789,0.750,���k��,3.9,��
2018/12/13,16:40,0.764,1.144,0.800,1.450,1.029,0.447,0.790,0.748,���k��,5.2,��
2018/12/13,16:50,0.764,1.145,0.799,1.449,1.029,0.446,0.788,0.749,���k��,4.9,��
2018/12/13,17:00,0.764,1.146,0.800,1.449,1.028,0.448,0.791,0.751,���k��,4.1,��
2018/12/13,17:10,0.764,1.144,0.800,1.450,1.028,0.446,0.790,0.750,���k��,5.4,��
2018/12/13,17:20,0.763,1.144,0.799,1.450,1.029,0.447,0.789,0.749,���k��,5.6,��
2018/12/13,17:30,0.761,1.145,0.802,1.447,1.028,0.445,0.790,0.749,���k��,6.1,��
2018/12/13,17:40,0.762,1.146,0.800,1.450,1.027,0.446,0.789,0.749,�k��,5.7,��
2018/12/13,17:50,0.764,1.144,0.800,1.450,1.027,0.446,0.791,0.750,�k��,4.5,��
2018/12/13,18:00,0.762,1.146,0.800,1.447,1.029,0.446,0.789,0.749,�k��,6.3,��
2018/12/13,18:10,0.765,1.143,0.801,1.450,1.029,0.445,0.789,0.749,�k��,5.2,��
2018/12/13,18:20,0.761,1.145,0.798,1.452,1.029,0.445,0.789,0.750,��,1.7,��
2018/12/13,18:30,0.763,1.145,0.799,1.450,1.030,0.446,0.790,0.747,��쐼,2.5,��
2018/12/13,18:40,0.762,1.144,0.801,1.449,1.028,0.444,0.787,0.750,��쐼,1.5,��
2018/12/13,18:50,0.762,1.145,0.801,1.451,1.028,0.446,0.789,0.749,���k��,1.5,��
2018/12/13,19:00,0.765,1.145,0.800,1.448,1.026,0.446,0.789,0.749,�k��,2.6,��
2018/12/13,19:10,0.764,1.142,0.799,1.447,1.029,0.445,0.789,0.750,�k��,3.0,��
2018/12/13,19:20,0.764,1.144,0.799,1.450,1.028,0.445,0.788,0.749,���k��,3.4,��
2018/12/13,19:30,0.765,1.143,0.800,1.449,1.029,0.444,0.787,0.749,���k��,3.0,��
2018/12/13,19:40,0.760,1.144,0.800,1.448,1.027,0.445,0.787,0.748,���k��,2.0,��
2018/12/13,19:50,0.762,1.143,0.799,1.448,1.029,0.446,0.788,0.749,��,1.2,��
2018/12/13,20:00,0.763,1.143,0.799,1.448,1.029,0.445,0.788,0.750,��,2.2,��
2018/12/13,20:10,0.761,1.145,0.800,1.450,1.029,0.445,0.790,0.748,��,2.6,��
2018/12/13,20:20,0.764,1.145,0.799,1.449,1.030,0.445,0.787,0.750,��쐼,1.2,��
2018/12/13,20:30,0.762,1.145,0.800,1.452,1.027,0.445,0.788,0.750,��쐼,0.8,��
2018/12/13,20:40,0.762,1.145,0.802,1.449,1.029,0.445,0.790,0.748,�쐼,2.0,��
2018/12/13,20:50,0.762,1.144,0.800,1.450,1.030,0.445,0.789,0.747,��쐼,2.5,��
2018/12/13,21:00,0.763,1.147,0.802,1.450,1.028,0.446,0.790,0.748,��쓌,3.5,��
2018/12/13,21:10,0.763,1.146,0.802,1.452,1.031,0.445,0.790,0.747,��,4.1,��
2018/12/13,21:20,0.762,1.144,0.801,1.448,1.031,0.445,0.790,0.749,��,5.3,��
2018/12/13,21:30,0.765,1.143,0.800,1.452,1.029,0.446,0.788,0.750,��,5.6,��
2018/12/13,21:40,0.763,1.147,0.800,1.447,1.030,0.446,0.787,0.750,��,6.3,��
2018/12/13,21:50,0.763,1.143,0.800,1.450,1.030,0.446,0.789,0.750,��쓌,6.9,��
2018/12/13,22:00,0.762,1.144,0.799,1.450,1.030,0.446,0.789,0.748,��,7.3,��
2018/12/13,22:10,0.762,1.146,0.799,1.447,1.028,0.446,0.789,0.750,��,7.5,��
2018/12/13,22:20,0.764,1.145,0.799,1.450,1.029,0.446,0.790,0.749,��,8.3,��
2018/12/13,22:30,0.763,1.147,0.800,1.451,1.027,0.445,0.789,0.749,��,9.3,��
2018/12/13,22:40,0.764,1.144,0.800,1.448,1.030,0.447,0.789,0.749,��,10.7,��
2018/12/13,22:50,0.763,1.145,0.799,1.449,1.028,0.446,0.790,0.750,��,10.0,��
2018/12/13,23:00,0.764,1.145,0.801,1.449,1.031,0.445,0.790,0.750,��,9.4,��
2018/12/13,23:10,0.762,1.143,0.799,1.451,1.030,0.448,0.790,0.749,��,9.6,��
2018/12/13,23:20,0.765,1.142,0.799,1.454,1.029,0.447,0.789,0.750,��,10.3,��
2018/12/13,23:30,0.764,1.146,0.803,1.451,1.031,0.446,0.789,0.750,��,11.4,��
2018/12/13,23:40,0.764,1.145,0.800,1.452,1.030,0.447,0.789,0.750,��,11.0,��
2018/12/13,23:50,0.763,1.144,0.801,1.451,1.032,0.446,0.790,0.749,��쐼,9.1,��
